Regional Weather Roundup
Issued by NWS Cleveland, OH

Home | Current Version | Previous Version | Graphics & Text | Print | Product List | Glossary On
Versions: 1 2 3 4 5 6 7 8 9 10 11 12 13 14 15 16 17 18 19 20 21 22 23 24 25 26 27 28 29 30 31 32 33 34 35 36 37 38 39 40 41 42 43 44 45 46 47 48 49 50
000
ASUS41 KCLE 221102
RWRCLE
OHIO REGIONAL WEATHER ROUNDUP
NATIONAL WEATHER SERVICE CLEVELAND, OH
700 AM EDT FRI MAY 22 2015

NOTE: "FAIR" INDICATES FEW OR NO CLOUDS BELOW 12,000 FEET WITH NO
SIGNIFICANT WEATHER AND/OR OBSTRUCTIONS TO VISIBILITY.

OHZ001>008-015>018-024>027-034-035-043-044-221200-
   NORTHWEST OHIO

CITY           SKY/WX    TMP DP  RH WIND       PRES   REMARKS
DEFIANCE       MOCLDY    51  42  71 N5        30.10R
FINDLAY        MOCLDY    50  40  68 W6        30.10R
TOLEDO EXPRESS CLOUDY    50  41  71 W6        30.10R
TOLEDO EXEC    CLOUDY    53  40  61 NW12      30.11R
LIMA           CLEAR     48  39  71 SW7       30.12R
$$

OHZ009>014-019>023-028>033-038-089-221200-
   NORTHEAST OHIO

CITY           SKY/WX    TMP DP  RH WIND       PRES   REMARKS
CLE-HOPKINS    MOCLDY    49  41  74 SW7       30.09R
CLE-LAKEFRONT  LGT RAIN  54  44  69 W14       30.06R
CUY CO. ARPT   CLOUDY    52  45  76 W9        30.06
LORAIN-ELYRIA  CLOUDY    52  38  58 W8        30.08R
ASHTABULA      CLOUDY    47  44  90 CALM      30.06R
AKRON-CANTON   MOCLDY    47  38  71 SW7       30.07R
WOOSTER        MOCLDY    45  38  76 W8        30.09R
MANSFIELD      MOCLDY    50  37  61 W9        30.09R
YOUNGSTOWN     MOCLDY    47  38  71 SW7       30.05R
$$

OHZ042-051>053-060>062-070>072-077>081-221200-
  SOUTHWEST OHIO

CITY           SKY/WX    TMP DP  RH WIND       PRES   REMARKS
CINC-COVINGTON CLEAR     43  41  93 SW3       30.19R FOG
CINC-LUNKEN    CLEAR     43  42  97 S6        30.20R
HAMILTON       CLEAR     40  39  97 CALM      30.19R FOG
DAYTON         CLEAR     45  41  86 SW7       30.16R
WRIGHT-PAT AFB CLEAR     45  41  86 S5        30.15R
DAYTON GENERAL CLEAR     43  41  93 S6        30.16R
WILMINGTON     CLEAR     42  39  89 SW8       30.16R FOG
$$

OHZ036-037-039>041-045>050-054>059-063>069-073>076-082>088-221200-
  CENTRAL AND SOUTHEAST OHIO

CITY           SKY/WX    TMP DP  RH WIND       PRES   REMARKS
COLUMBUS       CLEAR     44  41  89 CALM      30.13R
OSU AIRPORT    CLEAR     45  40  82 SW5       30.13R
BOLTON FIELD   NOT AVBL
RICKENBACK AFB CLEAR     42  40  93 S3        30.14R
NEWARK         CLEAR     41  39  93 S5        30.12R
MARION         MOCLDY    48  39  71 W7        30.12R
LANCASTER      CLEAR     47  41  80 W5        30.14R
ZANESVILLE     CLEAR     40  37  89 CALM      30.12R
NEW PHILLY     PTCLDY    44  40  85 CALM      30.10R
$$


USA.gov is the U.S. government's official web portal to all federal, state and local government web resources and services.